Location: Ciserano
(45.5833°N, 9.6000°E)
Time: 05:03:14
(UTC+00:00)

Cosmos 1328 Rocket - Pass Details

Date: 29 November 2020
Orbit: 601 x 627 km, 82.5° (Epoch: 27 January)

Event Time Altitude Azimuth Distance (km) Brightness Sun altitude
Exits shadow 04:35:36 57° 287° (WNW) 737 3.5 -21.1°
Maximum altitude 04:35:56 59° 265° (W) 723 3.5 -21.0°
Drops below altitude 10° 04:40:17 10° 186° (S) 1,995 6.2 -20.3°
Sets 04:42:32 0° 183° (S) 2,898 7.1 -19.9°
